Location: ???? ???? ?????
(31.2680°N, 31.7283°E)
Time: 18:53:47
(UTC+00:00)

NOSS 3-4 (C) - Pass Details

Date: 13 July 2020
Orbit: 891 x 1321 km, 63.4° (Epoch: 12 July)

Event Time Altitude Azimuth Distance (km) Brightness Sun altitude
Rises 19:55:43 0° 328° (NNW) 3,938 7.9 -29.4°
Reaches altitude 10° 19:58:18 10° 327° (NNW) 3,036 7.0 -29.7°
Maximum altitude 20:05:38 77° 243° (WSW) 1,258 3.9 -30.5°
Enters shadow 20:06:27 70° 194° (SSW) 1,303 3.8 -30.6°
